Weather History for Memphis, TN

Change the Weather History Date:

Friday, September 6, 2013

  Actual Average Record
Temperature  
Mean Temperature 82 °F 79 °F  
Max Temperature 93 °F 88 °F 103 °F (1925)
Min Temperature 71 °F 69 °F 51 °F (1953)
Degree Days  
Heating Degree Days 0 0  
Month to date heating degree days 0 0  
Since 1 July heating degree days 0 0  
Cooling Degree Days 17 14  
Month to date cooling degree days 104 86  
Year to date cooling degree days 1830 1921  
Growing Degree Days 32 (Base 50)    
Moisture  
Dew Point 63 °F    
Average Humidity 55    
Maximum Humidity 73    
Minimum Humidity 36    
Precipitation  
Precipitation 0.00 in 0.09 in 0.97 in (1923)
Month to date precipitation 0.06 0.52  
Year to date precipitation 46.01 35.90  
Snow  
Snow 0.00 in 0.00 in - ()
Month to date snowfall 0.0 0.0  
Since 1 July snowfall 0.0 0.0  
Since 1 September snowfall 0.0 0.0  
Snow Depth 0.00 in    
Sea Level Pressure  
Sea Level Pressure 30.09 in    
Wind  
Wind Speed 6 mph (ENE)    
Max Wind Speed 12 mph    
Max Gust Speed 16 mph    
Visibility 10 miles    
Events      
T = Trace of Precipitation, MM = Missing Value Source: NWS Daily Summary

Daily Weather History Graph

Daily Weather History Graph

Search for Another Location

Airport:

Trip Planner

Search our weather history database for the weather conditions in past years. The results will help you decide how hot, cold, wet, or windy it might be!

Date:

Astronomy

Sep. 06, 2013 Rise Set
Actual Time 6:36 AM CDT 7:19 PM CDT
Civil Twilight 6:10 AM CDT 7:44 PM CDT
Nautical Twilight 5:40 AM CDT 8:15 PM CDT
Astronomical Twilight 5:09 AM CDT 8:46 PM CDT
Moon 7:44 AM CDT (9/6) 7:49 PM CDT (9/6)
Length of Visible Light 13h 34m
Length of Day
12h 42m
New Moon, 2% of the Moon is Illuminated
Sep 6
New Moon
Sep 12
First Quarter
Sep 19
Full
Sep 26
Last Quarter
Oct 4
New

Hourly Weather History & Observations

Time (CDT) Temp. Heat Index Dew Point Humidity Pressure Visibility Wind Dir Wind Speed Gust Speed Precip Events Conditions
12:54 AM 75.9 °F - 64.0 °F 67% 30.12 in 10.0 mi East 6.9 mph - N/A   Mostly Cloudy
1:54 AM 73.9 °F - 63.0 °F 68% 30.11 in 10.0 mi East 5.8 mph - N/A   Mostly Cloudy
2:54 AM 73.9 °F - 63.0 °F 68% 30.10 in 10.0 mi East 6.9 mph - N/A   Mostly Cloudy
3:54 AM 73.0 °F - 63.0 °F 71% 30.10 in 10.0 mi East 8.1 mph - N/A   Scattered Clouds
4:54 AM 72.0 °F - 63.0 °F 73% 30.09 in 10.0 mi East 5.8 mph - N/A   Scattered Clouds
5:54 AM 72.0 °F - 63.0 °F 73% 30.10 in 10.0 mi ENE 4.6 mph - N/A   Mostly Cloudy
6:54 AM 72.0 °F - 63.0 °F 73% 30.11 in 10.0 mi East 8.1 mph - N/A   Mostly Cloudy
7:54 AM 73.0 °F - 62.1 °F 68% 30.12 in 10.0 mi East 6.9 mph - N/A   Overcast
8:54 AM 75.0 °F - 62.1 °F 64% 30.13 in 10.0 mi East 3.5 mph - N/A   Overcast
9:54 AM 77.0 °F - 63.0 °F 62% 30.14 in 10.0 mi Calm Calm - N/A   Mostly Cloudy
10:54 AM 81.0 °F 82.2 °F 63.0 °F 54% 30.14 in 10.0 mi SSE 3.5 mph - N/A   Mostly Cloudy
11:54 AM 86.0 °F 86.3 °F 62.1 °F 44% 30.14 in 10.0 mi Variable 3.5 mph - N/A   Scattered Clouds
12:54 PM 88.0 °F 87.9 °F 61.0 °F 40% 30.12 in 10.0 mi Calm Calm - N/A   Partly Cloudy
1:54 PM 89.1 °F 89.3 °F 62.1 °F 40% 30.09 in 10.0 mi Calm Calm - N/A   Scattered Clouds
2:54 PM 90.0 °F 90.3 °F 62.1 °F 39% 30.07 in 10.0 mi ESE 3.5 mph - N/A   Scattered Clouds
3:54 PM 91.9 °F 91.8 °F 61.0 °F 35% 30.05 in 10.0 mi Variable 4.6 mph - N/A   Scattered Clouds
4:54 PM 91.0 °F 91.9 °F 63.0 °F 39% 30.04 in 10.0 mi North 6.9 mph - N/A   Scattered Clouds
5:54 PM 89.1 °F 90.0 °F 63.0 °F 42% 30.04 in 10.0 mi NNE 11.5 mph - N/A   Scattered Clouds
6:54 PM 86.0 °F 86.3 °F 62.1 °F 44% 30.04 in 10.0 mi NNE 9.2 mph - N/A   Partly Cloudy
7:54 PM 84.0 °F 84.9 °F 63.0 °F 49% 30.04 in 10.0 mi NNE 6.9 mph - N/A   Partly Cloudy
8:54 PM 82.9 °F 83.7 °F 62.1 °F 49% 30.04 in 10.0 mi ENE 8.1 mph - N/A   Partly Cloudy
9:54 PM 81.0 °F 82.2 °F 63.0 °F 54% 30.04 in 10.0 mi ENE 6.9 mph - N/A   Partly Cloudy
10:54 PM 79.0 °F - 64.0 °F 60% 30.04 in 10.0 mi East 8.1 mph - N/A   Partly Cloudy
11:54 PM 81.0 °F 82.5 °F 64.0 °F 56% 30.04 in 10.0 mi East 5.8 mph - N/A   Partly Cloudy